[[{"header":{"parameterUnit":"m.s-1","parameterCategory":1,"la1":30.2992,"la2":30.254,"lo1":-89.0895,"lo2":-89.0443,"dy":0.0025,"dx":0.0025,"nx":19,"ny":19,"refTime":"2026-03-27T09:00:00:Z","depth":0,"parameterNumber":2,"parameterNumberName":"U-component_of_WINDS"},"data":[0,0,0,-3.1111,-3.1115,-3.1331,-3.1332,-3.1616,-3.1618,0,0,0,0,0,0,0,0,0,0,0,-3.1049,-3.1051,-3.111,-3.1116,-3.1331,-3.1332,-3.1615,-3.1618,0,0,0,0,0,0,0,0,0,0,0,-3.1048,-3.105,-3.1053,-3.1117,-3.1331,-3.1332,-3.1615,-3.145,0,0,0,0,0,0,0,0,0,0,-3.124,-3.1183,-3.105,-3.1053,-3.1118,-3.1331,-3.1332,-3.1442,-3.146,-3.152,0,-3.1571,0,-3.1599,-3.1637,-3.1638,0,0,0,-3.1116,-3.1168,-3.1224,-3.1053,-3.112,-3.133,-3.1234,-3.1452,-3.1473,-3.1545,-3.1576,-3.1586,-3.1604,-3.1639,-3.1641,-3.1981,-3.1983,0,0,-3.1104,-3.1089,-3.121,-3.1237,-3.1201,-3.1227,-3.1241,-3.1464,-3.1499,-3.1577,-3.1593,-3.1608,-3.1641,-3.1643,-3.198,-3.1982,0,0,0,-3.107,-3.1081,-3.1132,-3.1226,-3.1264,-3.1233,-3.1249,-3.1489,-3.1506,-3.1596,-3.1612,-3.1643,-3.1646,-3.1978,-3.1981,-3.2045,0,0,0,-3.1063,-3.1061,-3.1126,-3.112,-3.126,-3.1378,-3.1268,-3.149,-3.1516,-3.161,-3.1643,-3.1649,-3.1976,-3.198,-3.204,-3.2079,0,0,0,-3.1034,-3.1058,-3.1089,-3.1119,-3.121,-3.1375,-3.1405,-3.1496,-3.1526,-3.1639,-3.165,-3.1975,-3.1979,-3.2035,-3.2071,-3.2165,0,0,0,-3.1001,-3.1146,-3.109,-3.1258,-3.1208,-3.1412,-3.1404,-3.1557,-3.1661,-3.1644,-3.1977,-3.198,-3.2033,-3.2066,-3.216,-3.2242,-3.2274,0,0,-3.1176,-3.1166,-3.1266,-3.1223,-3.1432,-3.138,-3.1601,-3.1711,-3.1737,-3.1899,-3.1908,-3.2042,-3.2071,-3.2164,-3.246,-3.2485,0,0,0,-3.1317,-3.1389,-3.1447,-3.1544,-3.1629,-3.1707,-3.1784,-3.1825,-3.1963,-3.1816,-3.2101,-3.2119,-3.2174,-3.2214,-3.2236,-3.2285,-3.1998,-3.1997,-3.1997,-3.1546,-3.1567,-3.1734,-3.1782,-3.1876,-3.1953,-3.2033,-3.2101,-3.2098,-3.2165,-3.2214,-3.239,-3.2437,-3.2453,-3.2504,-3.2258,-3.2259,-3.2259,-3.2259,-3.1804,-3.191,-3.1899,-3.2057,-3.2081,-3.2215,-3.2296,-3.2289,-3.2419,-3.2355,-3.2406,-3.2335,-3.248,-3.2526,-3.2264,-3.2263,-3.2263,-3.2262,-3.2262,-3.1958,-3.2012,-3.2057,-3.2198,-3.2305,-3.2349,-3.2474,-3.2491,-3.2509,-3.2558,-3.2612,-3.2611,-3.2614,-3.2582,-3.2583,-3.2583,-3.2584,-3.2584,-3.2585,-3.2099,-3.2147,-3.2249,-3.235,-3.2414,-3.2501,-3.258,-3.2645,-3.2721,-3.2724,-3.2725,-3.2716,-3.2489,-3.2433,-3.2595,-3.2593,-3.2592,-3.2591,-3.259,-3.2356,-3.23,-3.2456,-3.252,-3.2641,-3.2747,-3.2766,-3.2896,-3.2952,-3.3014,-3.2994,-3.2823,-3.2816,-3.2799,-3.2752,-3.2987,-3.2987,-3.2987,-3.2987,-3.2486,-3.2482,-3.2646,-3.2747,-3.2848,-3.2881,-3.306,-3.3123,-3.318,-3.3217,-3.3185,-3.3124,-3.3106,-3.311,-3.3086,-3.3043,-3.3346,-3.3347,-3.3347,-3.2645,-3.2652,-3.28,-3.2851,-3.2947,-3.303,-3.3199,-3.3318,-3.3372,-3.3362,-3.3246,-3.3231,-3.3133,-3.31,-3.3089,-3.3052,-3.2973,0,0]},{"header":{"parameterUnit":"m.s-1","parameterCategory":1,"la1":30.2992,"la2":30.254,"lo1":-89.0895,"lo2":-89.0443,"dy":0.0025,"dx":0.0025,"nx":19,"ny":19,"refTime":"2026-03-27T09:00:00:Z","depth":0,"parameterNumber":3,"parameterNumberName":"V-component_of_WINDS"},"data":[0,0,0,-4.2653,-4.2654,-4.2691,-4.2691,-4.2751,-4.2752,0,0,0,0,0,0,0,0,0,0,0,-4.2651,-4.2652,-4.2653,-4.2654,-4.2691,-4.2691,-4.2751,-4.2752,0,0,0,0,0,0,0,0,0,0,0,-4.2651,-4.2652,-4.2653,-4.2654,-4.2691,-4.2691,-4.2751,-4.2718,0,0,0,0,0,0,0,0,0,0,-4.268,-4.2688,-4.2652,-4.2653,-4.2654,-4.2691,-4.2691,-4.2716,-4.272,-4.2741,0,-4.2762,0,-4.2758,-4.2757,-4.2757,0,0,0,-4.2647,-4.2685,-4.2686,-4.2653,-4.2655,-4.2691,-4.2672,-4.2718,-4.2723,-4.2746,-4.2763,-4.2765,-4.2759,-4.2758,-4.2758,-4.29,-4.2901,0,0,-4.2645,-4.2663,-4.2683,-4.269,-4.2686,-4.2671,-4.2673,-4.2721,-4.2741,-4.2763,-4.2766,-4.276,-4.2758,-4.2759,-4.2899,-4.29,0,0,0,-4.2644,-4.2662,-4.2662,-4.2688,-4.2693,-4.2672,-4.2675,-4.2738,-4.2737,-4.2767,-4.2761,-4.2758,-4.2759,-4.2898,-4.2899,-4.2965,0,0,0,-4.2642,-4.2661,-4.2661,-4.2673,-4.2693,-4.2717,-4.2692,-4.2734,-4.2738,-4.2761,-4.2758,-4.276,-4.2897,-4.2899,-4.2961,-4.2994,0,0,0,-4.2646,-4.2661,-4.267,-4.2674,-4.269,-4.2715,-4.2716,-4.2734,-4.2735,-4.2757,-4.276,-4.2896,-4.2898,-4.2958,-4.2988,-4.3035,0,0,0,-4.2655,-4.273,-4.2671,-4.2753,-4.269,-4.2757,-4.2716,-4.2765,-4.2791,-4.2759,-4.2897,-4.2899,-4.2956,-4.2984,-4.3031,-4.3078,-4.3099,0,0,-4.2759,-4.2743,-4.2789,-4.2738,-4.2819,-4.2749,-4.284,-4.2848,-4.2833,-4.2878,-4.2881,-4.2963,-4.2987,-4.3034,-4.3214,-4.3232,0,0,0,-4.2829,-4.2862,-4.2879,-4.2906,-4.2913,-4.2921,-4.2912,-4.2914,-4.2952,-4.286,-4.2993,-4.3007,-4.3033,-4.3055,-4.3069,-4.309,-4.291,-4.291,-4.291,-4.3004,-4.298,-4.3054,-4.3034,-4.306,-4.3049,-4.3067,-4.3068,-4.3038,-4.3069,-4.3082,-4.3195,-4.322,-4.3231,-4.3253,-4.3106,-4.3106,-4.3106,-4.3106,-4.3154,-4.3197,-4.3152,-4.3208,-4.3182,-4.3228,-4.322,-4.3196,-4.3234,-4.3183,-4.3206,-4.3151,-4.3251,-4.3269,-4.3111,-4.311,-4.311,-4.3109,-4.3109,-4.3266,-4.3282,-4.3283,-4.3316,-4.3344,-4.332,-4.3358,-4.3333,-4.331,-4.3332,-4.3342,-4.3341,-4.3336,-4.3339,-4.3339,-4.334,-4.334,-4.334,-4.3341,-4.3382,-4.338,-4.3415,-4.3427,-4.3438,-4.345,-4.3438,-4.3449,-4.3454,-4.3433,-4.3433,-4.3398,-4.3265,-4.3232,-4.3347,-4.3345,-4.3345,-4.3344,-4.3344,-4.3542,-4.3501,-4.3555,-4.3567,-4.3576,-4.3604,-4.3571,-4.3594,-4.3599,-4.3618,-4.3578,-4.3485,-4.3466,-4.3454,-4.3426,-4.3584,-4.3584,-4.3584,-4.3584,-4.3636,-4.3623,-4.3671,-4.3691,-4.3707,-4.3682,-4.3742,-4.3732,-4.3715,-4.3716,-4.369,-4.3651,-4.364,-4.3628,-4.3612,-4.3585,-4.3781,-4.3781,-4.3781,-4.3732,-4.3719,-4.3776,-4.3758,-4.3763,-4.3767,-4.3822,-4.3845,-4.3818,-4.3788,-4.3716,-4.3708,-4.3645,-4.3626,-4.3595,-4.3571,-4.3522,0,0]}]]